Terminal Aerodrome Forecast
Issued by NWS Milwaukee/Sullivan, WI

Home | Current Version | Previous Version | Text Only | Print | Product List | Glossary On
Versions: 1 2 3 4 5 6 7 8 9 10 11 12 13 14 15 16 17 18 19 20 21 22 23 24 25 26 27 28 29 30 31 32 33 34 35 36 37 38 39 40 41 42 43 44 45 46 47 48 49 50
000
FTUS43 KMKX 120538
TAFMSN
TAF
KMSN 120538Z 1206/1306 25005KT P6SM OVC060
     FM121100 29005KT P6SM BKN045
      TEMPO 1211/1214 BKN030
     FM121400 30010KT P6SM SCT040
     FM121800 32014G23KT P6SM BKN035
     FM122300 33015G24KT P6SM SCT035
     FM130200 33010G22KT P6SM FEW200=

USA.gov is the U.S. government's official web portal to all federal, state and local government web resources and services.